This demonstration page uses our WeatherBlox Daily Observations layout. Learn more.

Left ArrowRight Arrow

41.55636, -103.73856

Hourly Observations for January 27, 2022

Temp ( °F °C ) Dew Point ( °F °C ) Humidity (%) Winds ( mph kmh ) Pressure ( in mb ) Visibility ( mi km ) Precip ( " mm )
12:58 am 00:58 Mostly Cloudy 24 -4.4 15 -9.7 67 67 SW 7 11 30.25 1024 10 16 0.00 0.00
1:58 am 01:58 Mostly Cloudy 25 -3.9 15 -9.4 66 66 WSW 7 11 30.26 1025 10 16 0.00 0.00
2:58 am 02:58 Mostly Cloudy 28 -2.3 15 -9.6 58 58 WNW 7 11 30.26 1025 10 16 0.00 0.00
3:58 am 03:58 Cloudy 27 -2.8 16 -9 63 63 WNW 8 13 30.30 1026 10 16 0.00 0.00
4:58 am 04:58 Cloudy 27 -2.7 17 -8.2 66 66 WNW 6 9 30.32 1027 10 16 0.00 0.00
5:58 am 05:58 Cloudy with Light Snow Showers 27 -2.7 19 -7 73 73 WNW 8 13 30.37 1028 10 16 0.00 0.00
6:58 am 06:58 Cloudy with Light Snow Showers 26 -3.2 24 -4.7 90 90 NW 12 19 30.40 1029 10 16 0.00 0.00
7:58 am 07:58 Cloudy with Light Snow 26 -3.1 25 -4 94 94 NW 12 19 30.44 1031 10 16 0.00 0.00
8:58 am 08:58 Mostly Cloudy 28 -2.5 25 -4.1 89 89 NW 13 20 30.46 1032 10 16 0.00 0.00
9:56 am 09:56 Mostly Cloudy 29 -1.5 22 -5.8 73 73 NNW 23 37 30.49 1033 10 16 0.00 0.00
10:56 am 10:56 Mostly Cloudy 31 -0.8 19 -7.2 62 62 N 23 37 30.50 1033 10 16 0.00 0.00
11:56 am 11:56 Cloudy 30 -1 18 -7.6 61 61 N 23 37 30.50 1033 10 16 0.00 0.00
12:58 pm 12:58 Mostly Cloudy 31 -0.4 19 -7.3 60 60 N 21 33 30.48 1032 10 16 0.00 0.00
1:58 pm 13:58 Mostly Cloudy 31 -0.6 17 -8.4 56 56 NNW 23 37 30.48 1032 10 16 0.00 0.00
2:58 pm 14:58 Mostly Cloudy 31 -0.6 14 -9.8 50 50 N 21 33 30.49 1033 10 16 0.00 0.00
3:58 pm 15:58 Mostly Cloudy 30 -1.2 15 -9.4 54 54 NNW 17 28 30.50 1033 10 16 0.00 0.00
4:58 pm 16:58 Mostly Cloudy 29 -1.4 15 -9.5 54 54 NNW 12 19 30.51 1033 10 16 0.00 0.00
5:58 pm 17:58 Mostly Clear 26 -3.6 15 -9.3 65 65 NW 12 19 30.53 1034 10 16 0.00 0.00
6:58 pm 18:58 Clear 21 -5.9 15 -9.5 76 76 W 9 15 30.57 1035 10 16 0.00 0.00
7:58 pm 19:58 Clear 18 -7.7 14 -10.2 82 82 SW 7 11 30.57 1035 10 16 0.00 0.00
8:58 pm 20:58 Clear 19 -7 13 -10.5 76 76 NW 6 9 30.56 1035 10 16 0.00 0.00
9:58 pm 21:58 Clear 18 -8 11 -11.4 77 77 WSW 6 9 30.68 1039 10 16 0.00 0.00
10:58 pm 22:58 Clear 18 -7.7 10 -12.2 70 70 W 7 11 30.67 1038 10 16 0.00 0.00
11:58 pm 23:58 Clear 17 -8.3 10 -12.5 72 72 W 9 15 30.67 1039 10 16 0.00 0.00

Powered by AerisWeather